INTELSAT 33E DEB, 61998

Orbit data source: Space-Track

INTELSAT 33E DEB, 61998 is space debris in GEO originally from a launch on Wed, 24 Aug 2016 UTC launched from the French Guiana (FRGUI). Debris objects in space refer to the collection of defunct objects orbiting the Earth. Examples of debris include non-operational satellites, rocket bodies, and fragments generated from explosions, collisions, or faulty payload assembly.

Not visible in the next 10 days
Identifier
61998, 2016-053Q
Orbit
GEO
Country
Flag of USUS / ITSO
Related business
Manufacturer
Boeing/ES
Mission
Spacecraft
Bus & Motor
Unknown
Mass
Unknown
Launch date (UTC)
2016-08-24 (10 years ago)
Launch vehicle
Unknown
Launch site
French Guiana (FRGUI)
Object type
Payload
Rocket body
Debris
Shape & HBR
Unknown shape, 1.1 m
Radar Cross Section
Medium (>0.1 m² and <1 m²)

Expand to show TLE details & history
Last TLE update: 1 day ago

TLE from 1 day ago
0 INTELSAT 33E DEB
1 61998U 16053Q   26257.10661897  .00000076  00000-0  00000-0 0  9991
2 61998   1.7812  81.9027 0015995  25.8423 335.0176  1.00436400  6991
Epoch: 2026-09-14T02:33Z
TLE epoch observation values (Epoch: 2026-09-14T02:33:31.879Z)
Latitude
-0°
Longitude
51.2027°
Altitude
35,679.266 km
Speed
3.081 km/s
True Right ascension
05h 30m 42s
True Declination
0° 00' 00"
Sunlit
Object was in daylight at epoch
Visualization orbit readout
Latitude
Unknown
Longitude
Unknown
Altitude
Unknown
Speed
Unknown
Apparent Right ascension
Unknown
Apparent Declination
Unknown
Sunlit
N/A
Visualization observer readout
Local Sidereal Time
01:45:42
Azimuth
Unknown
Elevation
Unknown
Doppler factor
Unknown
Orbital elements
Apogee altitude
35,808.951 km
Perigee altitude
35,674.21 km
Semi-major axis
42,119.717 km
Eccentricity
0.0016
Inclination
1.7812°
RAAN
81.9027°
Arg. of periapsis
25.8423°
True anomaly
334.94005°
Mean anomaly
335.0176°
Eccentric anomaly
334.97884°
Mean motion
0.25108 °/min
Orbital period
1,433.8 mins
BSTAR
0
Loading maneuver chart data...
Computing Atmospheric mass density...
Loading historical data...
Loading historical data...
Loading historical data...
Loading historical data...
Loading historical data...
Loading historical data...
Loading historical data...

Documentation

Showing up to 5 results
|